TIME,DELAY(SENSOR),PRES,T(CTD),SAL,OXYGEN,RAWTEMP,T(OPTODE),TCPHASE,FLUOR,BETA(BETA700),BETA(BETA412),BETA(BETA440),CDOM,C(CSC),ED(ED411.90),ED(ED443.80),ED(ED489.40),ED(ED554.70),LU(LU412.20),LU(LU443.80),LU(LU489.40),LU(LU555.00),COMP,TILTX,TILTX(TILTY),CHECK
1345216411,5802,496.7900085449219000,17.3519001007080080,36.4417991638183600,232.4550933837890600,191.2286071777343800,17.3485107421875000,31.9205093383789060,49,108,98,83,67,15575,2147483227,2147767661,2147556260,2147796708,2147316434,2147477613,2147709842,2148244352,1721,7,13,20272
1345216526,5802,486.5700073242187500,17.4433002471923830,36.4603004455566400,233.9729003906250000,188.1054992675781200,17.4435291290283200,31.8037891387939450,50,107,98,84,68,15574,2147487552,2147765257,2147557632,2147794614,2147317833,2147476717,2147710317,2148245668,1677,7,13,8126
1345216655,5804,475.1199951171875000,17.5282993316650400,36.4753990173339840,235.1963958740234400,185.4447937011718800,17.5244903564453120,31.7086296081542970,49,107,98,82,66,15575,2147483785,2147766500,2147558610,2147794020,2147313764,2147474916,2147710290,2148244388,1692,7,13,20226
1345216782,5803,463.8800048828125000,17.5841007232666000,36.4865989685058600,235.7501983642578000,183.5298004150390600,17.5827693939209000,31.6559391021728500,50,107,98,82,66,15574,2147482706,2147765385,2147557165,2147791817,2147311972,2147475830,2147707913,2148246107,1675,7,13,6960
1345216899,5802,453.4299926757812500,17.6257991790771500,36.4947013854980500,236.2124023437500000,182.1575927734375000,17.6245307922363280,31.6148395538330080,50,108,97,84,67,15575,2147485467,2147763501,2147554834,2147797330,2147315620,2147476525,2147709449,2148246436,2484,7,13,44885
1345217026,5803,442.1199951171875000,17.6791000366210940,36.5036010742187500,236.3731994628906200,180.4447021484375000,17.6766605377197270,31.5842800140380860,50,106,98,82,65,15575,2147485248,2147763977,2147554697,2147796187,2147314944,2147476205,2147710674,2148245741,3052,6,13,27748
1345217141,5800,431.6799926757812500,17.7264995574951170,36.5120010375976560,236.6600036621093800,178.9064941406250000,17.7234802246093750,31.5495300292968750,50,106,99,83,67,15570,2147484845,2147764251,2147556726,2147792978,2147312859,2147476077,2147706404,2148242788,3230,7,12,53853
1345217270,5805,419.8599853515625000,17.7880992889404300,36.5223999023437500,237.0316009521484400,176.8726043701172000,17.7853908538818360,31.5041999816894530,50,107,99,83,66,15573,2147484589,2147766400,2147555520,2147794825,2147314377,2147474880,2147708946,2148244900,3575,7,12,10048
1345217385,5805,409.2699890136719000,17.8455009460449220,36.5320014953613300,237.5695953369140600,175.0211944580078000,17.8417491912841800,31.4537906646728500,50,107,98,83,66,15572,2147483977,2147765366,2147556982,2147795181,2147315428,2147472073,2147711158,2148246601,728,7,12,35261
1345217502,5804,398.7000122070312500,17.8934001922607420,36.5396995544433600,238.1544952392578000,173.3898925781250000,17.8914108276367200,31.4039592742919920,50,105,98,83,66,15569,2147483968,2147766765,2147558171,2147796077,2147317385,2147474697,2147712000,2148241124,1250,7,13,56531
1345217629,5804,387.3399963378906000,17.9508991241455080,36.5485992431640600,237.9288940429687500,171.4945068359375000,17.9491195678710940,31.3891792297363280,49,107,97,83,65,15573,2147488859,2147764891,2147558509,2147792932,2147315456,2147475209,2147711222,2148242285,1241,7,13,8894
1345217756,5801,376.2000122070312500,18.0107994079589840,36.5574989318847660,238.4575958251953000,169.6929016113281200,18.0039806365966800,31.3397502899169920,49,108,98,83,66,15571,2147481060,2147764132,2147559762,2147791762,2147316827,2147476004,2147710692,2148243474,1188,7,13,32358
1345217885,5803,365.1300048828125000,18.0345001220703120,36.5598983764648440,237.5281982421875000,168.8401031494140600,18.0299491882324220,31.3725395202636720,50,107,98,82,66,15572,2147488704,2147770907,2147558756,2147795081,2147316278,2147482057,2147709979,2148238921,927,7,13,50834
1345218012,5805,354.3099975585937500,18.0891990661621100,36.5666999816894500,237.2395935058593800,166.9727935791015600,18.0868206024169920,31.3611106872558600,50,108,98,84,67,15572,2147485275,2147769828,2147560164,2147792521,2147304768,2147479268,2147710253,2148239250,1009,7,13,35178
1345218141,5804,343.4899902343750000,18.1277999877929700,36.5710983276367200,236.8538970947265600,165.6894989013672000,18.1259002685546880,31.3623409271240230,50,110,99,83,66,15570,2147486491,2147771885,2147561572,2147791515,2147312054,2147478226,2147712786,2148240530,936,7,13,52850
1345218280,5802,332.0299987792969000,18.1702995300292970,36.5718002319335940,236.0496978759765600,164.2982025146484400,18.1682796478271500,31.3820896148681640,50,107,100,86,66,15567,2147489499,2147767634,2147567954,2147792228,2147307776,2147477101,2147711149,2148240950,1405,7,13,30055
1345218407,5802,321.8399963378906000,18.2511997222900400,36.5834999084472660,235.2288970947265600,161.7563018798828000,18.2457103729248050,31.3872299194335940,50,110,99,84,66,15563,2147484196,2147771602,2147571712,2147792073,2147308964,2147480000,2147715611,2148240237,2290,7,13,42319
1345218548,5803,310.6199951171875000,18.3085994720459000,36.5895004272460940,234.6271972656250000,159.7738037109375000,18.3061103820800780,31.3896007537841800,50,112,99,85,66,15565,2147482413,2147770139,2147573915,2147792484,2147319286,2147484132,2147721097,2148239177,3315,7,13,13804
1345218687,5805,299.6900024414062500,18.3575000762939450,36.5924987792968750,233.5691070556640600,157.9694061279297000,18.3610897064209000,31.4164104461669920,50,110,99,84,67,15564,2147491574,2147771821,2147584868,2147790985,2147311990,2147481965,2147721307,2148241984,183,7,12,19082
1345218833,5805,286.8599853515625000,18.4454002380371100,36.5990982055664060,231.8737945556640600,154.9698028564453000,18.4524993896484380,31.4584693908691400,50,111,99,84,65,15564,2147486948,2147776731,2147597037,2147788973,2147299044,2147489060,2147732891,2148238308,3436,7,12,32469
1345218936,5804,276.2399902343750000,18.5503997802734380,36.6052017211914060,230.3233032226562500,151.8061065673828000,18.5489292144775400,31.4915695190429700,50,109,98,85,67,15564,2147486052,2147783862,2147613750,2147792521,2147311241,2147491209,2147739830,2148239122,253,7,12,28559
1345219051,5807,264.6900024414062500,18.6338996887207030,36.6105003356933600,228.9913940429687500,148.5166931152343800,18.6492099761962900,31.5132904052734380,52,110,97,83,67,15564,2147489307,2147793728,2147636553,2147791908,2147307940,2147498550,2147755154,2148240694,21,7,13,13435
1345219156,5805,254.6499938964843800,18.7970008850097660,36.6274986267089840,227.2725982666015600,143.9172973632812500,18.7894706726074220,31.5365905761718750,56,112,98,84,67,15562,2147491894,2147801508,2147660498,2147791497,2147305618,2147506898,2147766198,2148242285,30,6,12,200
1345219283,5802,242.9600067138672000,18.9451999664306640,36.6413993835449200,226.0946044921875000,138.8043975830078000,18.9454402923584000,31.5270099639892580,58,113,99,83,68,15561,2147495497,2147823963,2147710390,2147788013,2147309120,2147515520,2147790107,2148243209,2849,7,12,58352
1345219398,5805,232.5399932861328000,19.0387001037597660,36.6081008911132800,231.8925018310547000,135.8824005126953000,19.0345993041992200,31.2028102874755860,50,112,99,83,67,15564,2147496548,2147847817,2147771401,2147788416,2147307117,2147533110,2147819483,2148241508,3368,7,12,60631
1345219527,5806,221.5800018310547000,19.2301006317138670,36.6180000305175800,233.8834075927734400,130.3186950683593800,19.2044296264648440,31.0330600738525400,57,115,98,85,65,15556,2147502720,2147891044,2147857398,2147788809,2147309238,2147555986,2147867629,2148248438,358,7,12,18793
1345219666,5805,210.4499969482422000,19.2791996002197270,36.5820999145507800,250.1432952880859400,127.8792037963867200,19.2789192199707030,30.2534103393554700,50,108,98,85,63,15567,2147513051,2147940937,2147968073,2147787574,2147324196,2147597577,2147934317,2148250459,774,7,12,28633
1345219807,5803,199.2500000000000000,19.3085994720459000,36.5716018676757800,255.9367980957031200,127.0111999511718800,19.3054294586181640,29.9897804260253900,50,112,98,85,64,15564,2147528585,2148007890,2148108205,2147789348,2147330267,2147649042,2148029467,2148259053,686,7,12,27799
1345219862,5806,194.8899993896484400,19.3759002685546880,36.5819015502929700,254.2216033935547000,124.9067001342773400,19.3697109222412100,30.0364494323730470,62,120,100,86,65,15547,2147534802,2148049462,2148184685,2147792621,2147337929,2147672484,2148072841,2148257883,863,7,13,60461
1345219917,5800,190.6000061035156200,19.3887004852294920,36.5830001831054700,253.3574981689453000,124.2244033813476600,19.3905506134033200,30.0651397705078120,64,118,101,84,63,15546,2147547867,2148093458,2148272621,2147791570,2147336146,2147696237,2148118171,2148264667,1051,7,12,54784
1345219972,5802,186.3999938964843800,19.4066009521484380,36.5834007263183600,252.2700958251953000,123.7595977783203100,19.4047508239746100,30.1065502166748050,72,122,98,85,64,15539,2147558866,2148147812,2148375625,2147791332,2147347657,2147725385,2148165997,2148266944,1128,7,12,8355
1345220027,5802,182.2400054931640600,19.4482002258300780,36.5856018066406250,251.2003936767578000,122.4909973144531200,19.4435100555419920,30.1368598937988280,71,121,99,85,64,15537,2147578176,2148208896,2148493888,2147791296,2147351881,2147757942,2148222720,2148269613,1230,7,12,19310
1345220102,5800,177.0200042724609400,19.5175991058349600,36.5984992980957000,250.5859069824218800,120.0036010742187500,19.5195102691650400,30.1318092346191400,77,120,99,85,64,15536,2147602569,2148309449,2148678061,2147795145,2147363748,2147805357,2148304064,2148274066,1323,7,12,7615
1345220169,5803,172.8800048828125000,19.5828990936279300,36.6092987060546900,249.2760009765625000,118.1377029418945300,19.5765399932861330,30.1651992797851560,83,121,98,85,65,15530,2147630098,2148407140,2148855067,2147792219,2147369819,2147853549,2148385179,2148279661,1175,7,12,39252
1345220236,5804,168.7100067138672000,19.5585002899169920,36.5853004455566400,251.6791992187500000,118.7508010864257800,19.5578002929687500,30.0675601959228500,91,121,100,86,67,15518,2147667556,2148536320,2149071835,2147796068,2147377910,2147904539,2148471049,2148285650,1199,7,12,14767
1345220291,5804,165.3899993896484400,19.6217002868652340,36.5952987670898440,253.8424987792968800,116.7361984252929700,19.6193809509277340,29.9475193023681640,93,123,100,84,65,15517,2147710610,2148664192,2149291337,2147794093,2147395346,2147952027,2148553234,2148293659,1047,7,12,57303
1345220358,5802,161.4600067138672000,19.6324005126953120,36.5903015136718750,254.7492980957031200,116.3483963012695300,19.6312294006347660,29.9032897949218750,96,124,101,86,65,15513,2147776960,2148858322,2149594477,2147796589,2147418715,2148025142,2148671158,2148302957,505,7,12,14260
1345220437,5803,157.2200012207031200,19.6728000640869140,36.5844993591308600,261.4888916015625000,115.1485977172851600,19.6679096221923830,29.6021308898925780,85,121,101,87,66,15513,2147869622,2149115126,2149966180,2147799497,2147449508,2148116470,2148816850,2148318500,341,7,12,10775
1345220516,5803,153.8000030517578000,19.7301998138427730,36.5906982421875000,264.7591857910156000,113.3247985839843800,19.7236690521240230,29.4434108734130860,93,122,100,87,65,15507,2147976557,2149399497,2150370998,2147798656,2147486829,2148230857,2148973641,2148326226,615,7,12,21829
1345220607,5801,149.8800048828125000,19.7551002502441400,36.5938987731933600,265.5133056640625000,112.3927993774414000,19.7521705627441400,29.4004192352294920,95,120,100,85,66,15483,2148149202,2149808073,2150913728,2147803254,2147534016,2148383606,2149188525,2148348745,1256,7,13,26594
1345220698,5804,145.7700042724609400,19.9113998413085940,36.6178016662597660,263.7141113281250000,107.2575988769531200,19.9092597961425780,29.4091205596923830,105,124,100,86,67,15495,2148380178,2150343716,2151600740,2147806336,2147617499,2148589787,2149464082,2148371894,855,7,12,20901
1345220791,5803,141.6399993896484400,20.0405998229980470,36.6408996582031250,260.0935974121094000,103.2008972167968800,20.0333995819091800,29.5077991485595700,125,130,100,87,65,15482,2148701092,2151070875,2152509595,2147812644,2147728429,2148851026,2149794578,2148399104,561,7,13,33923
1345220882,5803,137.5099945068359400,20.1056003570556640,36.6498985290527340,259.2969970703125000,101.1834030151367200,20.0951595306396500,29.5155696868896500,123,126,100,86,66,15472,2149112923,2151957833,2153554057,2147820772,2147863424,2149176667,2150198811,2148437065,539,7,13,37891
1345220973,5805,133.3500061035156200,20.0741996765136720,36.6133003234863300,264.2799987792969000,101.8340988159179700,20.0752391815185550,29.3168792724609380,99,127,103,87,65,15486,2149644352,2153025188,2154776283,2147832859,2148054381,2149592923,2150683958,2148483044,193,7,13,44461
1345221066,5805,129.4100036621093800,20.2028999328613280,36.6226005554199200,268.5299987792969000,98.0780029296875000,20.1902599334716800,29.0965003967285160,92,129,100,88,64,15486,2150391908,2154394194,2156237851,2147843318,2148309622,2150184530,2151346898,2148543661,39,7,12,45102
1345221157,5803,126.0100021362304700,20.2406997680664060,36.6296005249023440,270.8330078125000000,96.6104507446289000,20.2352008819580080,28.9856395721435550,98,127,102,89,64,15473,2151134985,2155718701,2157586806,2147853650,2148597568,2150730057,2151926866,2148600630,3087,7,13,15637
1345221272,5802,122.0800018310546900,20.3467006683349600,36.6265983581543000,272.4104919433594000,93.2509765625000000,20.3381309509277340,28.8807201385498050,97,135,102,88,61,15464,2152283949,2157638107,2159509869,2147878646,2149027364,2151552996,2152810816,2148683958,2438,7,13,26779
1345221407,5801,117.8000030517578100,20.4813995361328120,36.6395988464355500,274.4876098632812500,88.8887786865234400,20.4718303680419920,28.7442893981933600,96,134,104,88,63,15454,2153929371,2160296146,2162048868,2147908818,2149683904,2152745938,2154026989,2148795035,2430,7,12,29475
1345221510,5804,113.8700027465820300,20.7208003997802730,36.6655006408691400,274.7094116210937500,81.0393600463867200,20.7125892639160160,28.6376590728759770,101,134,103,88,63,15441,2155545609,2162708699,2164129261,2147940397,2150373677,2153894336,2155068635,2148892544,2562,7,13,38016
1345221661,5802,110.3199996948242200,21.0986995697021500,36.7117004394531250,272.8814086914062500,70.6319122314453100,21.0321807861328120,28.5794792175292970,90,136,105,88,60,15433,2158154505,2166771794,2167886427,2147987602,2151639168,2156025005,2157025709,2149063762,3303,8,13,32085
1345221800,5805,105.3700027465820300,21.2070007324218750,36.7210006713867200,271.9887084960937500,65.0439987182617200,21.2039394378662100,28.5449600219726560,85,136,105,90,60,15419,2162092032,2172323291,2172703140,2148074148,2153779904,2159368402,2159864978,2149304548,69,8,13,31728
1345221879,5804,101.2799987792968800,21.3304004669189450,36.7219009399414060,272.5551147460937500,61.1375312805175800,21.3241004943847660,28.4743003845214840,80,138,105,90,60,15424,2165809444,2177235181,2176993362,2148173961,2155869805,2162520411,2162523766,2149527049,341,7,12,35607
1345221934,5805,98.4599990844726600,21.4337005615234380,36.7276000976562500,273.4057006835937500,57.6616287231445300,21.4310703277587900,28.3981208801269530,77,138,105,90,60,15426,2168561280,2180793664,2180185417,2148248411,2157478875,2164794294,2164420004,2149696667,658,8,12,481
1345221989,5802,95.8199996948242200,21.6128997802734380,36.7345008850097660,273.8353881835937500,52.2965698242187500,21.5962791442871100,28.3149299621582030,77,141,104,90,61,15424,2171601810,2184517714,2183365723,2148333595,2159265261,2167343195,2166524425,2149874212,1210,7,13,62343
1345222046,5801,93.4300003051757800,21.7870006561279300,36.7728996276855500,273.9638061523437500,46.4211807250976560,21.7773494720459000,28.2375507354736330,74,137,105,90,61,15425,2174506651,2187991899,2186319478,2148429074,2161107730,2169885248,2168543890,2150048877,1446,7,13,30920
1345222101,5798,91.4400024414062500,21.9195003509521500,36.8005981445312500,273.5979003906250000,42.0759811401367200,21.9113693237304700,28.1982898712158200,71,136,106,91,60,15430,2177419337,2191372434,2189133293,2148526491,2163079652,2172456009,2170527332,2150222902,1548,7,12,31891
1345222156,5804,89.6200027465820300,21.9892005920410160,36.8103981018066400,273.8536071777344000,39.9682884216308600,21.9764099121093750,28.1624603271484380,70,138,105,90,59,15429,2180877878,2195647689,2192847524,2148645686,2165388809,2175448731,2172728713,2150416960,1171,7,12,41448
1345222211,5800,87.8899993896484400,22.0380001068115230,36.8151016235351560,273.9020996093750000,37.6792488098144500,22.0470695495605470,28.1323795318603500,70,137,106,91,59,15423,2183953060,2199189586,2195740571,2148736932,2167713453,2178389650,2174889444,2150601060,1068,7,12,14395
1345222266,5804,86.1800003051757800,22.0655994415283200,36.8064002990722660,274.4827880859375000,37.0801200866699200,22.0655708312988280,28.1026096343994140,69,137,105,90,59,15416,2187579008,2203261915,2199008100,2148857398,2170342601,2181682377,2177254848,2150801060,1129,8,12,36669
1345222333,5805,84.0800018310546900,22.0879993438720700,36.7919998168945300,275.3395996093750000,36.4001388549804700,22.0865592956542970,28.0612602233886720,68,138,105,91,57,15419,2191950976,2208128347,2203069915,2149038866,2173732928,2185895542,2180286098,2151080740,850,7,12,42422
1345222412,5802,80.9300003051757800,22.1163005828857420,36.7503013610839840,276.3447875976562500,35.3520507812500000,22.1189308166503900,28.0097694396972660,66,136,105,90,58,15403,2199055990,2215712018,2209202715,2149363995,2178742180,2191826596,2184504539,2151462500,96,7,12,44925
1345222467,5805,78.1399993896484400,22.3075008392334000,36.7546997070312500,276.4732971191406000,28.9244403839111330,22.3175506591796880,27.9263496398925780,65,137,104,92,60,15397,2204364955,2220690907,2212869275,2149608466,2183310857,2197136100,2188260379,2151795803,3559,7,13,3342
1345222522,5806,75.6800003051757800,22.4419994354248050,36.7629013061523440,277.4641113281250000,25.0418701171875000,22.4376296997070300,27.8411998748779300,63,143,106,93,56,15396,2211089892,2228199561,2219757302,2150032923,2188526729,2203234514,2192806802,2152225572,67,8,12,53148
1345222577,5808,73.5199966430664000,22.5797004699707030,36.7695999145507800,278.1203918457031000,20.5443305969238280,22.5768203735351560,27.7614402770996100,62,140,107,92,58,15405,2217492864,2235219593,2226083282,2150433517,2193901110,2209565083,2197370898,2152660178,9,8,12,43690
1345222632,5803,71.6900024414062500,22.6298999786376950,36.7731018066406250,278.6351928710937500,19.1764202117919920,22.6191806793212900,27.7253704071044920,62,138,105,93,58,15408,2222202084,2239573312,2229539437,2150741705,2198180845,2214047515,2200270601,2152940498,3357,8,13,41889
1345222687,5802,70.0999984741211000,22.7285003662109380,36.7775001525878900,278.6203002929687500,16.6065902709960940,22.6987800598144530,27.6946392059326170,60,139,108,94,60,15391,2226815588,2244074605,2233286061,2151059145,2202650642,2218888374,2203485485,2153230418,3337,8,12,59505
1345222765,5803,67.4700012207031200,22.8034992218017580,36.7826995849609400,279.3646850585937500,13.2278604507446290,22.8034896850585940,27.6255893707275400,61,139,106,92,57,15403,2236585152,2253681846,2241567853,2151818011,2213052809,2230011958,2211274733,2154006939,131,7,12,19286
1345222820,5804,65.0899963378906200,22.9449996948242200,36.7807006835937500,279.2030029296875000,8.8824653625488280,22.9382400512695300,27.5789108276367200,60,139,105,91,56,15403,2246525641,2263853312,2250569289,2152597750,2221800146,2239137353,2217438381,2154598244,3312,8,13,42245
1345222875,5803,62.9700012207031250,23.0709991455078120,36.7789993286132800,279.1039123535156000,4.5321559906005860,23.0732593536376950,27.5300407409667970,59,140,106,90,57,15402,2253778642,2269889764,2255237430,2153286436,2229996918,2246868416,2222481106,2155113984,2854,7,12,17809
1345222930,5802,61.0299987792968750,23.3868999481201170,36.7817993164062500,278.4173889160156000,-2.8034000396728516,23.3011703491210940,27.4672107696533200,58,140,106,91,59,15406,2261814134,2277576850,2262051538,2154060635,2239075529,2256381513,2228688585,2155723117,2852,8,12,55345
1345222997,5801,59.1500015258789060,23.4904994964599600,36.7815017700195300,278.1192932128906000,-8.1470222473144530,23.4673900604248050,27.4139595031738280,58,136,105,90,59,15410,2268934921,2284548315,2268341449,2154886756,2246984905,2263950308,2233298898,2156223826,3277,8,12,31097
1345223076,5802,56.6699981689453100,23.7255992889404300,36.7468986511230500,277.2773132324219000,-16.6457290649414060,23.7321090698242200,27.3432197570800780,57,139,104,93,59,15418,2278754249,2293139145,2275640201,2156123227,2261947547,2278643419,2243150912,2157291355,3266,6,12,65520
1345223131,5802,54.8400001525878900,23.9895992279052730,36.7369003295898440,276.2695007324219000,-24.4864006042480470,23.9767303466796880,27.2868404388427730,58,133,106,91,56,15413,2287104749,2301328091,2283563830,2157438829,2271166985,2287484937,2249569545,2158024365,2438,7,12,23396
1345223285,5802,53.4300003051757800,24.2583007812500000,36.7496986389160160,274.6827087402344000,-33.4290618896484400,24.2562103271484380,27.2395305633544920,57,135,103,90,58,15420,2292562176,2306744146,2289161819,2158218066,2278166573,2294431817,2254585289,2158723181,1809,7,13,37333
1345223437,5802,51.7000007629394500,24.7141990661621100,36.7596015930175800,271.3211059570312500,-47.6010589599609400,24.7002201080322270,27.1974697113037100,57,138,105,91,55,15405,2299586797,2312836470,2295104548,2159731922,2291405184,2306346386,2262222345,2159685805,1629,7,12,55397
1345223697,5804,49.7799987792968750,24.9757003784179700,36.7503013610839840,268.2799072265625000,-56.7533912658691400,24.9876995086669920,27.2049198150634770,57,134,104,91,60,15410,2306392987,2319550235,2301820169,2161235510,2304489334,2318205476,2268854372,2160582966,1000,8,12,9586
1345223766,5803,47.7500000000000000,25.1730003356933600,36.7308006286621100,266.7807922363281000,-61.4069099426269500,25.1340999603271500,27.2072601318359380,56,134,105,91,58,15417,2319577408,2332916324,2315578688,2164052416,2318523136,2330337947,2276892434,2161573092,1387,8,12,14841
1345223835,5803,45.8899993896484400,25.6226005554199220,36.7262001037597660,265.1065979003906000,-72.1639709472656200,25.4731292724609380,27.1436500549316400,56,132,103,90,59,15410,2324552329,2337071634,2319764516,2165823460,2331926098,2343435977,2286218166,2162891648,1872,9,12,41594
1345224046,5804,43.7099990844726560,25.7886009216308600,36.7159004211425800,260.1820983886719000,-82.1029891967773400,25.7871608734130860,27.2188701629638670,55,135,103,92,57,15417,2329714934,2341180205,2323862345,2168008795,2346917833,2357121033,2295019986,2164142491,2480,7,12,34809
1345224127,5803,41.7799987792968750,25.9232006072998050,36.7024993896484400,258.8103942871094000,-86.1912002563476600,25.9165496826171880,27.2245807647705080,55,134,101,90,53,15412,2340829769,2352537755,2335955940,2171074322,2363250157,2372075410,2305331922,2165823122,2068,8,12,36141
1345224220,5805,39.8899993896484400,26.1179008483886720,36.6903991699218750,257.4637145996094000,-91.1428070068359400,26.0734500885009770,27.2191295623779300,55,133,105,92,57,15420,2354630509,2367381869,2352089152,2175742500,2373714852,2380864265,2311220589,2166876251,2252,8,12,25501
1345224325,5804,37.6599998474121100,26.2640991210937500,36.6675987243652340,256.1044006347656000,-96.7315063476562500,26.2507705688476560,27.2068500518798830,54,136,105,91,59,15420,2361788352,2373957366,2359620379,2179786678,2394979977,2400152832,2323957248,2168976054,2722,8,12,16543
1345224406,5804,35.9199981689453100,26.3542995452880860,36.6524009704589840,255.2173004150390600,-100.4214019775390600,26.3679904937744140,27.1984500885009770,55,133,102,93,56,15426,2363159405,2374321270,2360802569,2181791652,2407288064,2410731428,2329944329,2169850102,2871,8,12,57128